1496404800.2,52252,19.88,74212.8,24.19,-20.43,-21.39,0,*4D
1496404801.43,52253,19.94,74216.3,24.21,-19.95,-20.83,0,*46
1496404802.64,52254,19.88,74212.5,24.21,-18.99,-19.75,0,*4F
1496404803.84,52255,19.88,74216.0,24.21,-19.75,-20.59,0,*49
1496404805.08,52256,19.88,74214.5,24.23,-19.51,-20.25,0,*45
1496404806.28,52257,19.88,74216.8,24.25,-19.91,-20.69,0,*46
1496404807.49,52258,19.88,74218.0,24.25,-19.95,-20.89,0,*43
1496404808.7,52259,19.88,74216.5,24.25,-18.65,-19.17,0,*41
1496404809.91,52260,19.88,74214.8,24.25,-19.17,-19.95,0,*45
1496404811.13,52261,19.88,74214.5,24.31,-18.83,-19.75,0,*43
1496404812.38,52262,19.88,74216.8,24.31,-21.09,-21.83,0,*4A
1496404813.62,52263,19.88,74218.0,24.33,-20.15,-21.03,0,*4D
1496404814.87,52264,19.88,74214.3,24.31,-20.53,-21.47,0,*4A
1496404816.11,52265,19.88,74216.0,24.33,-20.15,-21.03,0,*4B
1496404817.34,52266,19.88,74214.8,24.33,-19.95,-20.53,0,*4E
1496404818.57,52267,19.88,74216.8,24.33,-19.07,-19.81,0,*41
1496404819.79,52268,19.88,74214.3,24.35,-18.79,-19.47,0,*4A
1496404821.0,52269,19.88,74214.8,24.35,-18.25,-19.03,0,*42
1496404822.24,52270,19.88,74216.8,24.39,-19.17,-19.95,0,*49
1496404823.48,52271,19.88,74218.3,24.39,-21.03,-21.73,0,*45
1496404824.74,52272,19.94,74216.8,24.39,-19.61,-20.25,0,*4B
1496404825.99,52273,19.88,74218.0,24.39,-21.67,-22.41,0,*47
1496404827.23,52274,19.88,74216.3,24.37,-20.79,-21.53,0,*40
1496404828.47,52275,19.88,74214.8,24.37,-20.43,-21.23,0,*4F
1496404829.72,52276,19.88,74216.3,24.39,-20.79,-21.47,0,*49
1496404830.94,52277,19.88,74214.5,24.37,-20.49,-21.13,0,*44
1496404832.19,52278,19.94,74220.3,24.39,-21.39,-22.31,0,*40
1496404833.42,52279,19.88,74216.8,24.37,-22.31,-22.97,0,*48
1496404834.65,52280,19.88,74216.3,24.37,-20.93,-21.67,0,*48
1496404835.87,52281,19.94,74218.5,24.35,-21.17,-21.77,0,*47
1496404837.09,52282,19.88,74218.5,24.35,-21.73,-22.41,0,*40
1496404838.31,52283,19.94,74216.8,24.33,-21.97,-22.83,0,*43
1496404839.54,52284,19.88,74216.3,24.33,-21.47,-22.17,0,*44
1496404840.76,52285,19.88,74218.3,24.35,-19.75,-20.25,0,*4A
1496404841.96,52286,19.88,74214.8,24.33,-21.39,-22.27,0,*4C
1496404843.21,52287,19.94,74216.3,24.35,-22.21,-22.87,0,*4B
1496404844.41,52288,19.88,74218.8,24.33,-22.03,-22.93,0,*47
1496404845.66,52289,19.88,74218.0,24.31,-22.31,-22.93,0,*45
1496404846.88,52290,19.88,74216.3,24.31,-22.57,-23.39,0,*4C
1496404848.11,52291,19.88,74216.3,24.31,-22.97,-23.75,0,*49
1496404849.34,52292,19.88,74216.5,24.25,-23.65,-24.31,0,*44
1496404850.61,52293,19.94,74218.8,24.23,-23.29,-23.99,0,*4E
1496404851.87,52294,19.88,74216.3,24.19,-23.75,-24.41,0,*4B
1496404853.15,52295,19.88,74216.0,24.19,-23.29,-24.25,0,*41
1496404854.38,52296,19.94,74220.3,24.15,-24.51,-25.23,0,*41
1496404855.64,52297,19.88,74218.8,24.15,-23.89,-24.71,0,*44
1496404856.87,52298,19.88,74216.3,24.15,-24.05,-24.97,0,*40
1496404858.1,52299,19.88,74216.0,24.11,-26.03,-26.71,0,*4B
1496404859.38,52300,19.88,74216.8,24.09,-23.33,-23.85,0,*4B
1496404860.61,52301,19.88,74214.5,24.07,-22.41,-23.03,0,*4E
1496404861.83,52302,19.88,74218.3,24.07,-21.87,-22.41,0,*43
1496404863.06,52303,19.88,74218.5,24.09,-21.47,-22.03,0,*46
1496404864.3,52304,19.94,74222.0,24.09,-22.57,-23.13,0,*43
1496404865.5,52305,19.94,74222.5,24.07,-22.03,-22.53,0,*48
1496404866.7,52306,19.88,74216.0,24.07,-21.93,-22.67,0,*46
1496404867.9,52307,19.94,74216.8,24.07,-23.13,-23.79,0,*43
1496404869.18,52308,19.88,74214.8,24.09,-23.19,-23.65,0,*45
1496404870.46,52309,19.94,74216.8,24.05,-24.15,-24.71,0,*41
1496404871.69,52310,19.94,74220.0,24.01,-22.63,-23.09,0,*42
1496404872.94,52311,19.94,74216.8,24.01,-23.89,-24.41,0,*4D
1496404874.17,52312,19.88,74216.5,23.99,-23.79,-24.41,0,*47
1496404875.46,52313,19.88,74216.0,23.97,-21.87,-22.21,0,*4B
1496404876.72,52314,19.94,74216.0,23.97,-21.57,-22.03,0,*41
1496404877.92,52315,19.88,74216.8,23.99,-21.09,-21.43,0,*42
1496404879.15,52316,19.88,74214.8,23.99,-21.57,-21.93,0,*47
1496404880.35,52317,19.94,74218.5,23.99,-21.43,-21.63,0,*4C
1496404881.55,52318,19.88,74216.8,23.99,-22.07,-22.57,0,*44
1496404882.77,52319,19.94,74218.3,23.99,-21.09,-21.33,0,*49
1496404883.98,52320,19.94,74220.0,23.99,-21.09,-21.47,0,*40
1496404885.21,52321,19.94,74216.5,24.01,-21.73,-22.11,0,*4A
1496404886.49,52322,19.88,74218.5,24.01,-22.47,-22.77,0,*4D
1496404887.74,52323,19.94,74218.3,24.01,-20.29,-20.49,0,*49
1496404888.99,52324,19.88,74212.5,24.05,-20.19,-20.29,0,*4F
1496404890.25,52325,19.88,74218.0,24.01,-19.95,-20.15,0,*4B
1496404891.47,52326,19.88,74216.8,24.07,-21.33,-22.03,0,*4C
1496404892.7,52327,19.94,74218.3,24.07,-21.87,-22.07,0,*46
1496404893.96,52328,19.88,74216.8,24.07,-21.87,-22.21,0,*4D
1496404895.16,52329,19.94,74218.3,24.07,-21.09,-21.17,0,*4C
1496404896.39,52330,19.94,74218.3,24.05,-20.89,-21.13,0,*4B
1496404897.64,52331,19.94,74218.3,24.05,-21.13,-21.33,0,*4A
1496404898.87,52332,19.88,74216.0,24.07,-21.33,-21.43,0,*4E
1496404900.08,52333,19.94,74218.5,24.07,-20.39,-20.63,0,*47
1496404901.3,52334,19.88,74214.3,24.09,-20.93,-21.09,0,*43
1496404902.55,52335,19.94,74216.0,24.07,-20.83,-20.83,0,*4E
1496404903.84,52336,19.94,74216.8,24.09,-19.57,-19.61,0,*46
1496404905.12,52337,19.94,74216.5,24.09,-20.49,-20.53,0,*49
1496404906.38,52338,19.94,74218.0,24.11,-21.67,-21.67,0,*44
1496404907.58,52339,19.94,74216.5,24.11,-19.71,-19.71,0,*45
1496404908.81,52340,19.94,74216.8,24.11,-19.57,-19.51,0,*4D
1496404910.02,52341,19.94,74216.5,24.13,-20.09,-20.05,0,*44
1496404911.22,52342,19.88,74214.5,24.13,-19.03,-18.83,0,*42
1496404912.45,52343,19.94,74216.3,24.17,-19.57,-19.91,0,*44
1496404913.66,52344,19.94,74218.5,24.17,-21.17,-21.17,0,*49
1496404914.93,52345,19.88,74214.3,24.19,-19.85,-19.81,0,*42
1496404916.13,52346,19.94,74216.0,24.17,-20.09,-20.05,0,*47
1496404917.39,52347,19.94,74218.0,24.19,-19.99,-19.85,0,*49
1496404918.62,52348,19.94,74216.3,24.21,-20.69,-20.53,0,*49
1496404919.83,52349,19.94,74216.5,24.21,-20.73,-20.59,0,*49
1496404921.03,52350,19.94,74214.5,24.21,-20.73,-20.69,0,*42
1496404922.28,52351,19.94,74216.8,24.21,-19.65,-19.61,0,*4C
1496404923.51,52352,19.88,74212.8,24.21,-19.95,-19.81,0,*4E
1496404924.75,52353,19.94,74216.8,24.23,-20.39,-20.25,0,*45
1496404925.97,52354,19.88,74212.5,24.25,-19.95,-19.85,0,*48
1496404927.23,52355,19.94,74216.5,24.23,-21.77,-21.67,0,*4F
1496404928.48,52356,19.88,74212.3,24.25,-21.03,-20.99,0,*49
1496404929.71,52357,19.94,74216.5,24.25,-19.41,-19.17,0,*49
1496404930.94,52358,19.94,74216.3,24.29,-19.71,-19.41,0,*4A
1496404932.14,52359,19.94,74214.8,24.29,-20.05,-19.91,0,*4F
1496404933.35,52360,19.94,74218.3,24.29,-19.71,-19.37,0,*40
1496404934.54,52361,19.94,74214.3,24.33,-20.73,-20.69,0,*43
1496404935.79,52362,19.94,74212.8,24.31,-22.11,-21.87,0,*45
1496404937.05,52363,19.94,74212.5,24.29,-22.31,-22.17,0,*45
1496404938.32,52364,19.94,74212.5,24.29,-21.53,-21.23,0,*41
1496404939.53,52365,19.94,74214.0,24.29,-21.13,-20.63,0,*41
1496404940.74,52366,19.94,74214.8,24.29,-20.59,-20.29,0,*43
1496404941.99,52367,19.94,74212.8,24.29,-20.49,-20.15,0,*4C
1496404943.24,52368,19.94,74214.0,24.29,-21.27,-20.83,0,*45
1496404944.47,52369,19.94,74214.3,24.29,-21.09,-20.79,0,*4D
1496404945.7,52370,19.94,74214.0,24.31,-20.69,-20.39,0,*4F
1496404946.93,52371,19.94,74214.3,24.29,-20.63,-20.19,0,*4F
1496404948.15,52372,19.94,74214.8,24.33,-19.99,-19.81,0,*43
1496404949.39,52373,19.94,74214.8,24.35,-20.05,-19.65,0,*41
1496404950.61,52374,19.94,74214.0,24.33,-20.25,-19.85,0,*4C
1496404951.84,52375,19.94,74214.8,24.37,-19.75,-19.57,0,*49
1496404953.09,52376,19.94,74214.0,24.35,-19.31,-18.83,0,*40
1496404954.34,52377,19.94,74212.3,24.35,-19.27,-18.99,0,*4D
1496404955.57,52378,19.94,74214.8,24.41,-19.31,-19.37,0,*43
1496404956.8,52379,19.94,74212.5,24.39,-20.93,-20.73,0,*45
1496404958.05,52380,19.94,74214.8,24.37,-21.67,-21.53,0,*44
1496404959.28,52381,19.94,74214.3,24.39,-20.39,-20.09,0,*4F
1496404960.51,52382,19.94,74212.5,24.39,-20.59,-20.39,0,*49
1496404961.75,52383,19.94,74214.8,24.39,-19.81,-19.37,0,*43
1496404962.99,52384,19.94,74212.0,24.43,-19.81,-19.47,0,*4E
1496404964.21,52385,19.94,74214.5,24.41,-19.03,-18.59,0,*49
1496404965.43,52386,19.94,74214.5,24.43,-18.65,-18.21,0,*46
1496404966.66,52387,19.94,74214.8,24.45,-19.13,-18.83,0,*49
1496404967.9,52388,19.94,74214.5,24.47,-18.65,-18.31,0,*4D
1496404969.12,52389,19.94,74214.3,24.47,-18.59,-18.21,0,*42
1496404970.38,52390,19.94,74212.8,24.47,-21.27,-21.23,0,*41
1496404971.59,52391,19.94,74214.0,24.51,-23.59,-23.39,0,*45
1496404972.83,52392,19.94,74214.3,24.47,-24.25,-24.31,0,*42
1496404974.03,52393,19.94,74214.3,24.41,-22.93,-22.83,0,*41
1496404975.26,52394,19.94,74214.0,24.41,-22.17,-22.03,0,*42
1496404976.51,52395,19.94,74212.8,24.39,-19.99,-19.85,0,*44
1496404977.71,52396,19.94,74212.0,24.41,-19.71,-19.51,0,*47
1496404978.92,52397,19.94,74212.3,24.41,-23.69,-23.89,0,*4A
1496404980.15,52398,19.94,74212.5,24.39,-22.57,-22.63,0,*43
1496404981.35,52399,19.94,74212.3,24.37,-21.43,-21.39,0,*46
1496404982.61,52400,19.94,74214.0,24.39,-20.53,-20.59,0,*48
1496404983.86,52401,19.94,74214.8,24.39,-20.53,-20.63,0,*40
1496404985.11,52402,19.94,74212.8,24.37,-23.29,-23.49,0,*48
1496404986.36,52403,19.94,74214.8,24.37,-24.15,-24.41,0,*4E
1496404987.6,52404,19.94,74214.8,24.33,-23.95,-24.11,0,*47
1496404988.85,52405,19.94,74214.8,24.31,-23.29,-23.43,0,*43
1496404990.08,52406,19.94,74214.8,24.29,-23.49,-23.79,0,*46
1496404991.31,52407,19.94,74214.8,24.25,-21.33,-21.47,0,*4B
1496404992.54,52408,19.94,74214.8,24.29,-19.99,-20.19,0,*49
1496404993.76,52409,19.94,74214.0,24.29,-19.85,-19.91,0,*4F
1496404994.99,52410,19.94,74214.3,24.31,-19.75,-19.95,0,*45
1496404996.25,52411,19.94,74214.8,24.31,-21.77,-22.17,0,*4F
1496404997.52,52412,19.94,74216.5,24.31,-21.23,-21.67,0,*49
1496404998.75,52413,19.94,74216.3,24.31,-19.99,-20.43,0,*45
1496404999.98,52414,19.94,74216.0,24.31,-19.75,-20.09,0,*4E
1496405001.21,52415,19.94,74214.5,24.35,-19.71,-20.25,0,*41
1496405002.41,52416,19.94,74218.0,24.37,-18.65,-19.13,0,*4B
1496405003.63,52417,19.94,74214.3,24.35,-18.41,-18.83,0,*46
1496405004.91,52418,19.94,74212.8,24.35,-19.61,-20.19,0,*42
1496405006.19,52419,19.94,74212.3,24.35,-24.83,-25.45,0,*4D
1496405007.45,52420,19.94,74214.8,24.35,-24.83,-25.49,0,*4B
1496405008.66,52421,19.94,74212.8,24.29,-23.75,-24.61,0,*42
1496405009.87,52422,19.94,74214.3,24.25,-22.07,-22.73,0,*4C
1496405011.12,52423,19.94,74214.8,24.23,-23.39,-23.99,0,*42
1496405012.34,52424,19.94,74212.3,24.23,-21.39,-22.03,0,*45
1496405013.62,52425,19.94,74212.3,24.23,-22.47,-23.29,0,*47
1496405014.85,52426,19.94,74212.5,24.21,-20.25,-20.83,0,*43
1496405016.08,52427,19.94,74216.5,24.21,-19.17,-19.81,0,*41
1496405017.31,52428,19.94,74216.3,24.23,-20.59,-21.47,0,*4D
1496405018.58,52429,19.94,74212.5,24.23,-20.15,-21.03,0,*44
1496405019.84,52430,19.94,74212.5,24.25,-22.21,-23.23,0,*4F
1496405021.07,52431,19.94,74214.0,24.23,-22.11,-22.97,0,*45
1496405022.27,52432,19.94,74216.3,24.21,-20.09,-20.93,0,*49
1496405023.49,52433,19.94,74214.5,24.21,-20.15,-21.17,0,*48
1496405024.7,52434,19.94,74214.8,24.21,-22.03,-23.13,0,*4C
1496405025.93,52435,19.94,74218.8,24.21,-20.59,-21.53,0,*46
1496405027.13,52436,19.94,74214.0,24.21,-19.47,-20.29,0,*4C
1496405028.36,52437,19.94,74214.5,24.21,-19.91,-20.83,0,*46
1496405029.62,52438,19.94,74216.3,24.23,-20.25,-21.23,0,*45
1496405030.87,52439,19.94,74214.0,24.21,-20.83,-21.53,0,*4D
1496405032.09,52440,19.94,74214.8,24.23,-20.09,-21.09,0,*4C
1496405033.33,52441,19.94,74214.5,24.21,-21.93,-23.23,0,*47
1496405034.61,52442,19.94,74216.3,24.19,-21.87,-23.29,0,*40
1496405035.86,52443,19.94,74216.8,24.19,-21.39,-22.77,0,*4E
1496405037.08,52444,19.94,74216.8,24.17,-23.39,-24.83,0,*48
1496405038.31,52445,19.94,74214.5,24.17,-20.79,-22.07,0,*44
1496405039.54,52446,19.94,74214.0,24.15,-18.73,-19.95,0,*47
1496405040.8,52447,19.94,74214.5,24.19,-18.93,-20.29,0,*49
1496405042.05,52448,19.94,74214.5,24.19,-18.21,-19.41,0,*4B
1496405043.26,52449,19.94,74216.3,24.21,-19.75,-21.17,0,*49
1496405044.49,52450,19.94,74212.8,24.21,-19.65,-21.09,0,*4F
1496405045.69,52451,19.94,74216.3,24.21,-18.41,-19.91,0,*43
1496405046.92,52452,19.94,74216.5,24.21,-18.89,-20.59,0,*4A
1496405048.13,52453,19.94,74214.5,24.21,-18.45,-19.99,0,*4D
1496405049.39,52454,19.94,74214.8,24.23,-18.83,-20.53,0,*4E
1496405050.62,52455,19.94,74212.8,24.23,-18.45,-20.25,0,*44
1496405051.86,52456,19.94,74214.5,24.23,-17.69,-19.23,0,*4A
1496405053.14,52457,19.94,74216.5,24.23,-17.93,-19.61,0,*48
1496405054.34,52458,19.94,74212.8,24.25,-19.71,-21.43,0,*48
1496405055.54,52459,19.94,74214.0,24.25,-18.25,-19.91,0,*4D
1496405056.8,52460,19.94,74214.0,24.31,-19.23,-20.93,0,*4D
1496405058.04,52461,19.94,74214.0,24.29,-18.93,-20.59,0,*49
1496405059.27,52462,19.94,74214.3,24.29,-18.31,-20.05,0,*4B
1496405060.48,52463,19.94,74218.8,24.29,-18.99,-20.93,0,*47
1496405061.73,52464,19.94,74216.3,24.31,-17.87,-19.65,0,*4A
1496405063.01,52465,19.94,74214.3,24.31,-17.41,-19.23,0,*43
1496405064.25,52466,19.94,74218.5,24.33,-17.79,-19.61,0,*4F
1496405065.45,52467,19.94,74214.0,24.33,-18.11,-20.09,0,*4B
1496405066.7,52468,19.94,74218.0,24.33,-18.01,-19.85,0,*4B
1496405067.95,52469,19.94,74216.3,24.37,-18.31,-20.15,0,*4E
1496405069.2,52470,19.94,74214.5,24.35,-18.79,-20.83,0,*47
1496405070.43,52471,19.94,74218.3,24.35,-20.89,-23.09,0,*43
1496405071.63,52472,19.94,74216.0,24.33,-20.93,-23.13,0,*46
1496405072.86,52473,19.94,74216.8,24.29,-21.57,-23.75,0,*45
1496405074.05,52474,19.94,74216.8,24.29,-20.73,-22.83,0,*4D
1496405075.25,52475,19.94,74218.0,24.29,-20.73,-22.83,0,*4C
1496405076.48,52476,19.94,74216.5,24.25,-20.53,-22.83,0,*41
1496405077.69,52477,19.94,74218.0,24.21,-21.39,-23.43,0,*44
1496405078.95,52478,19.94,74218.8,24.23,-19.31,-21.17,0,*49
1496405080.17,52479,19.94,74218.0,24.21,-19.23,-21.09,0,*46
1496405081.39,52480,19.94,74214.0,24.21,-18.41,-20.39,0,*47
1496405082.64,52481,19.94,74216.3,24.23,-17.55,-19.47,0,*4D
1496405083.87,52482,19.94,74216.5,24.23,-20.89,-22.97,0,*4E
1496405085.12,52483,19.94,74216.5,24.23,-22.63,-24.71,0,*47
1496405086.35,52484,19.94,74216.3,24.17,-21.33,-23.39,0,*4A
1496405087.63,52485,19.94,74218.0,24.15,-19.61,-21.53,0,*4B
1496405088.88,52486,19.94,74216.0,24.19,-17.87,-19.81,0,*46
1496405090.11,52487,19.94,74220.0,24.21,-18.11,-20.15,0,*4B
1496405091.33,52488,19.94,74218.0,24.21,-21.47,-23.53,0,*4C
1496405092.59,52489,19.94,74216.0,24.19,-21.67,-23.79,0,*4C
1496405093.82,52490,19.94,74218.8,24.17,-22.17,-24.47,0,*44
1496405095.06,52491,19.94,74218.0,24.13,-23.13,-25.71,0,*40
1496405096.32,52492,19.94,74218.0,24.09,-20.93,-23.03,0,*40
1496405097.52,52493,19.94,74218.0,24.07,-19.75,-21.93,0,*46
1496405098.75,52494,19.94,74216.3,24.09,-18.99,-21.17,0,*40
1496405099.95,52495,19.94,74214.8,24.07,-19.91,-22.07,0,*44
1496405101.15,52496,19.94,74218.5,24.07,-19.75,-22.07,0,*4D
1496405102.39,52497,19.94,74218.8,24.07,-20.35,-22.73,0,*41
1496405103.62,52498,19.94,74218.8,24.07,-20.49,-23.13,0,*42
1496405104.85,52499,19.94,74218.8,24.05,-20.69,-23.09,0,*48
1496405106.11,52500,19.94,74220.5,24.05,-19.91,-22.47,0,*4F
1496405107.34,52501,19.94,74218.0,23.99,-18.41,-20.79,0,*4F
1496405108.57,52502,19.94,74218.0,24.01,-17.69,-20.29,0,*4A
1496405109.83,52503,19.94,74216.3,24.05,-17.63,-20.25,0,*49
1496405111.08,52504,19.94,74218.8,24.05,-17.63,-20.29,0,*42
1496405112.35,52505,19.94,74218.5,24.07,-19.27,-22.17,0,*40
1496405113.62,52506,19.94,74218.8,24.05,-17.55,-20.19,0,*46
1496405114.83,52507,19.94,74214.5,24.07,-15.53,-18.21,0,*41
1496405116.06,52508,19.94,74218.3,24.09,-16.97,-20.05,0,*46
1496405117.26,52509,19.94,74216.3,24.13,-15.71,-18.73,0,*4D
1496405118.49,52510,19.94,74216.3,24.11,-16.03,-19.27,0,*41
1496405119.71,52511,19.94,74216.0,24.11,-16.23,-19.51,0,*43
1496405120.95,52512,19.94,74218.3,24.13,-14.75,-17.83,0,*42
1496405122.19,52513,19.94,74216.3,24.17,-14.05,-17.35,0,*4D
1496405123.45,52514,19.94,74218.3,24.19,-14.47,-17.73,0,*40
1496405124.71,52515,19.94,74218.5,24.21,-14.55,-18.01,0,*43
1496405125.97,52516,19.94,74218.0,24.25,-13.97,-17.59,0,*4F
1496405127.22,52517,19.94,74218.5,24.25,-15.57,-19.61,0,*41
1496405128.42,52518,19.94,74216.0,24.25,-15.95,-19.91,0,*4F
1496405129.68,52519,19.94,74216.0,24.29,-14.47,-18.35,0,*43
1496405130.94,52520,19.94,74218.5,24.31,-14.29,-18.31,0,*4C
1496405132.19,52521,19.94,74218.5,24.31,-14.01,-18.17,0,*43
1496405133.42,52522,19.94,74222.8,24.33,-13.87,-18.11,0,*4D
1496405134.67,52523,19.94,74218.8,24.35,-15.29,-19.57,0,*4B
1496405135.91,52524,19.94,74216.5,24.35,-15.01,-19.47,0,*47
1496405137.13,52525,19.94,74218.3,24.37,-14.93,-19.51,0,*49
1496405138.37,52526,19.94,74218.0,24.37,-16.09,-20.59,0,*49
1496405139.56,52527,19.94,74218.3,24.37,-14.65,-19.13,0,*44
1496405140.83,52528,19.94,74218.0,24.39,-14.01,-18.59,0,*48
1496405142.1,52529,19.94,74220.3,24.39,-13.87,-18.55,0,*4C
1496405143.3,52530,19.94,74218.0,24.41,-13.55,-18.25,0,*43
1496405144.56,52531,19.94,74216.3,24.43,-13.97,-18.73,0,*4D
1496405145.84,52532,19.94,74216.5,24.45,-13.33,-18.01,0,*43
1496405147.06,52533,19.94,74218.0,24.47,-13.19,-17.93,0,*4C
1496405148.29,52534,19.94,74216.5,24.47,-12.97,-17.63,0,*43
1496405149.58,52535,19.94,74216.3,24.53,-14.55,-19.31,0,*46
1496405150.83,52536,19.94,74216.3,24.53,-14.55,-19.51,0,*43
1496405152.07,52537,19.94,74218.0,24.57,-14.37,-19.37,0,*42
1496405153.27,52538,19.94,74218.5,24.55,-13.47,-18.17,0,*4C
1496405154.52,52539,19.94,74216.8,24.57,-12.47,-17.11,0,*47
1496405155.75,52540,19.94,74218.8,24.59,-12.47,-17.11,0,*47
1496405156.98,52541,19.94,74220.3,24.59,-14.01,-18.79,0,*43
1496405158.25,52542,19.94,74220.8,24.65,-12.65,-17.59,0,*46
1496405159.48,52543,19.94,74214.0,24.63,-13.65,-18.55,0,*43
1496405160.71,52544,19.94,74218.3,24.63,-14.33,-19.31,0,*43
1496405161.96,52545,19.94,74216.3,24.65,-14.19,-19.27,0,*4B
1496405163.19,52546,19.94,74216.3,24.67,-15.15,-20.15,0,*4C
1496405164.41,52547,19.94,74216.8,24.67,-15.39,-20.29,0,*4C
1496405165.7,52548,19.94,74216.3,24.65,-16.27,-21.23,0,*46
1496405166.98,52549,19.94,74214.0,24.65,-14.55,-19.31,0,*48
1496405168.23,52550,19.94,74216.3,24.65,-13.83,-18.65,0,*4C
1496405169.48,52551,19.94,74218.5,24.65,-15.07,-19.85,0,*48
1496405170.7,52552,19.94,74218.0,24.67,-15.15,-20.15,0,*49
1496405171.93,52553,19.94,74216.3,24.69,-15.63,-20.43,0,*44
1496405173.16,52554,19.94,74218.8,24.67,-16.55,-21.57,0,*4F
1496405174.38,52555,19.94,74218.0,24.67,-15.07,-19.65,0,*40
1496405175.59,52556,19.94,74218.5,24.67,-15.75,-20.43,0,*48
1496405176.84,52557,19.94,74216.3,24.69,-15.43,-19.95,0,*43
1496405178.1,52558,19.94,74216.8,24.69,-16.17,-20.73,0,*4C
1496405179.35,52559,19.94,74218.5,24.69,-16.31,-20.59,0,*41
1496405180.57,52560,19.94,74214.5,24.69,-15.99,-20.43,0,*41
1496405181.8,52561,19.94,74214.5,24.67,-16.03,-20.49,0,*44
1496405183.05,52562,19.94,74218.3,24.69,-15.85,-20.05,0,*4C
1496405184.33,52563,19.94,74216.5,24.69,-16.51,-20.83,0,*49
1496405185.57,52564,19.94,74216.3,24.69,-15.01,-19.17,0,*4F
1496405186.8,52565,19.94,74220.0,24.69,-14.97,-19.03,0,*45
1496405188.02,52566,19.94,74222.0,24.75,-15.21,-19.13,0,*46
1496405189.25,52567,19.94,74216.0,24.75,-15.67,-19.57,0,*45
1496405190.49,52568,19.94,74216.5,24.75,-15.57,-19.31,0,*49
1496405191.75,52569,19.94,74218.0,24.79,-16.17,-19.95,0,*4D
1496405193.0,52570,19.94,74218.3,24.79,-15.85,-19.51,0,*45
1496405194.23,52571,19.94,74218.0,24.77,-16.37,-20.15,0,*4A
1496405195.49,52572,19.94,74218.5,24.79,-15.89,-19.37,0,*4B
1496405196.74,52573,19.94,74218.8,24.79,-16.31,-19.91,0,*46
1496405197.95,52574,19.94,74216.5,24.81,-16.75,-20.25,0,*43
1496405199.18,52575,19.94,74218.0,24.81,-16.23,-19.51,0,*48
1496405200.38,52576,19.94,74218.8,24.81,-15.75,-19.03,0,*4C
1496405201.62,52577,19.94,74218.5,24.83,-15.85,-19.03,0,*40
1496405202.89,52578,19.94,74216.3,24.83,-17.07,-20.25,0,*49
1496405204.09,52579,19.94,74216.5,24.85,-17.31,-20.43,0,*4B
1496405205.35,52580,19.94,74216.5,24.83,-17.17,-20.09,0,*41
1496405206.55,52581,19.94,74220.0,24.85,-16.55,-19.51,0,*46
1496405207.78,52582,19.94,74216.3,24.85,-16.03,-18.89,0,*42
1496405209.03,52583,19.94,74220.5,24.87,-16.75,-19.61,0,*47
1496405210.29,52584,19.94,74218.0,24.87,-17.83,-20.83,0,*4E
1496405211.54,52585,19.94,74218.5,24.87,-17.25,-20.09,0,*41
1496405212.79,52586,19.94,74220.0,24.87,-16.59,-19.23,0,*4A
1496405214.02,52587,19.94,74216.3,24.89,-16.37,-18.93,0,*47
1496405215.27,52588,19.94,74218.0,24.91,-18.69,-21.57,0,*46
1496405216.49,52589,19.94,74218.3,24.89,-21.17,-23.95,0,*41
1496405217.74,52590,19.94,74218.0,24.85,-19.65,-22.21,0,*45
1496405219.0,52591,19.94,74220.8,24.85,-19.41,-22.17,0,*47
1496405220.25,52592,19.94,74218.5,24.83,-17.79,-20.25,0,*44
1496405221.47,52593,19.94,74218.0,24.85,-17.31,-19.85,0,*4F
1496405222.68,52594,19.94,74216.8,24.85,-18.79,-21.39,0,*47
1496405223.93,52595,19.94,74218.0,24.83,-18.49,-20.83,0,*43
1496405225.19,52596,19.94,74216.8,24.85,-18.31,-20.49,0,*4F
1496405226.43,52597,19.94,74218.0,24.85,-18.31,-20.43,0,*44
1496405227.68,52598,19.94,74218.8,24.87,-17.69,-19.81,0,*4F
1496405228.89,52599,19.94,74218.8,24.85,-18.65,-20.89,0,*4D
1496405230.12,52600,19.94,74218.8,24.85,-17.83,-19.81,0,*4B
1496405231.35,52601,19.94,74216.8,24.87,-18.73,-20.73,0,*4F
1496405232.58,52602,19.94,74218.8,24.87,-18.25,-20.25,0,*4C
1496405233.81,52603,19.94,74218.5,24.85,-18.83,-20.83,0,*4F
1496405235.07,52604,19.94,74218.0,24.85,-19.57,-21.53,0,*4C
1496405236.32,52605,19.94,74216.3,24.89,-18.01,-19.85,0,*43
1496405237.53,52606,19.94,74218.3,24.85,-20.63,-22.63,0,*43
1496405238.74,52607,19.94,74216.8,24.85,-19.13,-20.93,0,*42
1496405239.95,52608,19.94,74222.0,24.85,-18.79,-20.73,0,*4E
1496405241.18,52609,19.94,74218.0,24.85,-18.89,-20.43,0,*43
1496405242.41,52610,19.94,74216.0,24.85,-19.99,-21.83,0,*46
1496405243.66,52611,19.94,74218.3,24.87,-19.47,-21.33,0,*4D
1496405244.86,52612,19.94,74218.3,24.85,-20.63,-22.67,0,*42
1496405246.09,52613,19.94,74216.8,24.83,-21.93,-23.79,0,*45
1496405247.33,52614,19.94,74216.8,24.81,-20.69,-22.47,0,*48
1496405248.53,52615,19.94,74222.5,24.81,-20.09,-21.77,0,*4F
1496405249.79,52616,19.94,74218.5,24.79,-19.61,-21.47,0,*4C
1496405251.02,52617,19.94,74216.5,24.79,-18.99,-20.43,0,*4E
1496405252.31,52618,19.94,74216.8,24.83,-19.27,-20.99,0,*47
1496405253.55,52619,19.94,74218.3,24.81,-21.53,-23.43,0,*48
1496405254.78,52620,19.94,74218.5,24.79,-19.91,-21.47,0,*46
1496405256.04,52621,19.94,74222.5,24.79,-19.47,-21.03,0,*4C
1496405257.27,52622,19.94,74222.0,24.79,-18.83,-20.25,0,*43
1496405258.55,52623,19.94,74218.5,24.79,-17.97,-19.31,0,*47
1496405259.78,52624,19.94,74218.8,24.79,-18.17,-19.75,0,*47
1496405261.04,52625,20.0,74220.3,24.83,-18.11,-19.57,0,*45
1496405262.33,52626,19.94,74220.8,24.83,-19.31,-20.99,0,*4D
1496405263.56,52627,19.94,74220.0,24.85,-18.79,-20.19,0,*4F
1496405264.79,52628,19.94,74216.5,24.85,-18.07,-19.41,0,*4E
1496405265.98,52629,19.94,74216.3,24.85,-17.83,-19.07,0,*4E
1496405267.26,52630,19.94,74216.3,24.87,-17.97,-19.31,0,*44
1496405268.49,52631,20.0,74222.8,24.87,-16.89,-18.41,0,*4D
1496405269.71,52632,19.94,74218.3,24.91,-17.35,-18.65,0,*49
1496405270.96,52633,19.94,74218.5,24.91,-17.17,-18.49,0,*46
1496405272.17,52634,19.94,74216.0,24.93,-16.83,-18.07,0,*45
1496405273.39,52635,19.94,74216.3,24.99,-16.83,-18.17,0,*4F
1496405274.62,52636,19.94,74218.5,24.99,-17.69,-19.17,0,*48
1496405275.85,52637,20.0,74222.3,25.01,-18.07,-19.57,0,*4A
1496405277.08,52638,19.94,74216.8,24.99,-18.73,-20.29,0,*45
1496405278.31,52639,19.94,74220.0,25.05,-18.59,-19.99,0,*49
1496405279.54,52640,19.94,74216.5,25.03,-19.51,-21.13,0,*41
1496405280.73,52641,19.94,74216.0,25.01,-20.09,-21.77,0,*47
1496405281.96,52642,19.94,74218.5,24.99,-18.73,-20.25,0,*44
1496405283.19,52643,19.94,74218.0,25.01,-18.41,-20.19,0,*4B
1496405284.44,52644,19.94,74220.0,25.03,-18.59,-19.99,0,*45
1496405285.67,52645,20.0,74222.3,25.03,-19.07,-20.69,0,*4B
1496405286.9,52646,19.94,74218.0,25.03,-19.75,-21.63,0,*46
1496405288.1,52647,19.94,74216.5,25.01,-19.47,-21.43,0,*46
1496405289.33,52648,19.94,74216.0,25.01,-19.47,-21.27,0,*4B
1496405290.56,52649,19.94,74216.0,25.01,-19.91,-21.83,0,*4F
1496405291.84,52650,19.94,74216.0,24.99,-19.31,-21.23,0,*47
1496405293.07,52651,19.94,74218.3,24.99,-19.37,-21.09,0,*48